Date,TemperatureHighF,TemperatureAvgF,TemperatureLowF,DewpointHighF,DewpointAvgF,DewpointLowF,HumidityHigh,HumidityAvg,HumidityLow,PressureMaxIn,PressureMinIn,WindSpeedMaxMPH,WindSpeedAvgMPH,GustSpeedMaxMPH,PrecipitationSumIn
2013-1-1,17,5,-4,7,0,-8,86,78,63,30.27,30.10,4,0,7,0.00
2013-1-2,31,18,3,28,14,0,92,85,77,30.12,29.98,10,3,16,0.00
2013-1-3,30,17,9,27,13,6,90,84,77,30.33,30.11,13,5,19,0.00
2013-1-4,34,22,10,25,17,7,91,83,69,30.24,30.12,5,1,13,0.03
2013-1-5,38,26,19,33,23,16,93,86,78,30.11,29.89,14,4,25,0.01
2013-1-6,27,19,13,20,15,7,87,82,74,30.26,30.05,15,5,25,0.00
2013-1-7,42,31,19,32,25,16,93,80,67,30.15,29.96,10,3,22,0.00
2013-1-8,43,32,19,35,28,17,94,86,72,30.03,29.81,10,3,18,0.00
2013-1-9,43,35,30,34,30,27,91,84,70,30.41,30.03,7,3,16,0.00
2013-1-10,40,34,28,35,30,25,97,86,63,30.36,29.70,11,5,20,0.02
2013-1-11,49,41,35,44,39,34,99,96,83,29.71,29.40,7,4,16,0.02
2013-1-12,46,23,14,42,17,8,92,77,71,30.07,29.47,15,9,28,0.00
2013-1-13,18,12,8,11,7,3,82,77,71,30.28,30.01,12,6,22,0.00
2013-1-14,28,17,6,17,11,3,89,78,61,30.42,30.28,7,1,12,0.00
2013-1-15,34,23,13,20,15,9,89,71,55,30.33,30.00,6,1,14,0.00
2013-1-16,46,32,22,37,26,14,91,78,70,30.18,29.83,14,5,25,0.00
2013-1-17,34,24,13,25,18,8,89,77,59,30.42,30.18,6,2,13,0.00
2013-1-18,51,38,26,38,31,21,88,75,58,30.29,29.83,11,5,27,0.00
2013-1-19,50,37,16,36,29,7,90,75,58,30.24,29.77,19,7,36,0.00
2013-1-20,16,11,6,9,6,2,86,79,67,30.37,30.24,11,5,21,0.00
2013-1-21,7,2,-4,2,-4,-11,82,73,69,30.40,30.29,14,8,25,0.00
2013-1-22,15,8,-2,8,1,-7,84,71,61,30.39,30.24,7,2,12,0.00
2013-1-23,26,16,5,19,9,-4,81,73,64,30.51,30.12,13,5,22,0.00
2013-1-24,20,10,2,9,0,-6,73,63,53,30.58,30.17,12,7,20,0.00
2013-1-25,35,22,11,25,14,3,83,70,62,30.28,30.03,17,6,26,0.00
2013-1-26,32,19,6,18,10,2,83,67,51,30.31,30.11,10,5,20,0.00
2013-1-27,33,32,29,32,28,18,97,86,61,30.11,29.72,12,5,23,0.01
2013-1-28,47,35,32,47,35,31,99,98,97,29.89,29.54,10,4,20,0.12
2013-1-29,51,37,32,51,36,30,99,96,92,29.63,29.47,14,6,26,0.14
2013-1-30,32,22,14,30,20,10,95,89,81,29.81,29.48,18,10,27,0.01
2013-1-31,14,4,-1,10,-2,-8,82,74,71,30.32,29.81,21,13,30,0.00
2013-2-1,24,6,-6,18,0,-11,83,75,67,30.34,29.98,9,4,16,0.00
2013-2-2,33,20,13,29,15,8,95,82,67,30.15,29.93,13,4,25,0.00
2013-2-3,33,25,15,30,17,-100,90,75,63,30.13,29.75,16,-9,27,0.03
2013-2-4,26,22,18,22,18,15,89,84,76,30.00,29.73,15,4,22,0.01
2013-2-5,40,30,22,34,25,-100,92,84,77,30.08,29.74,11,-11,19,0.00
2013-2-6,41,32,22,36,29,20,92,87,80,30.09,29.88,10,3,20,0.00
2013-2-7,37,31,28,33,27,-100,96,91,85,30.17,29.86,11,-11,22,0.00
2013-2-8,29,27,24,25,24,22,90,88,84,30.33,30.17,11,5,22,0.00
2013-2-9,34,30,27,31,28,24,92,90,88,30.22,29.82,13,8,23,0.03
2013-2-10,43,36,31,42,34,28,98,93,79,29.82,29.23,18,8,27,0.19
2013-2-11,31,29,27,28,22,-100,89,80,78,30.09,29.51,19,-3,36,0.01
2013-2-12,45,32,22,31,26,19,92,78,53,30.11,29.83,10,3,18,0.00
2013-2-13,49,36,25,37,30,23,92,79,58,29.83,29.63,7,3,18,0.00
2013-2-14,39,34,23,33,27,-100,87,80,73,30.16,29.66,14,8,25,0.00
2013-2-15,28,21,15,18,14,8,86,74,64,30.29,30.16,10,5,19,0.00
2013-2-16,34,22,11,22,16,8,90,77,55,30.27,30.06,6,2,10,0.00
2013-2-17,43,31,19,30,23,16,88,75,55,30.06,29.62,13,7,27,0.00
2013-2-18,41,30,15,35,24,9,92,79,70,29.88,29.53,19,9,32,0.00
2013-2-19,20,13,4,9,5,-2,82,70,57,30.34,29.88,20,11,32,0.00
2013-2-20,24,12,0,14,4,-5,81,71,57,30.41,30.26,12,5,16,0.00
2013-2-21,26,21,16,22,16,12,93,81,67,30.29,29.83,21,13,31,0.00
2013-2-22,27,24,21,24,21,17,94,89,82,29.94,29.75,14,6,23,0.03
2013-2-23,32,20,10,23,15,7,90,82,67,29.93,29.86,7,2,13,0.01
2013-2-24,39,24,8,30,20,5,90,83,67,30.04,29.90,6,2,9,0.00
2013-2-25,38,32,27,31,28,25,93,86,73,30.06,29.89,9,3,11,0.00
2013-2-26,31,30,28,30,28,25,96,92,84,29.89,29.70,18,11,25,0.03
2013-2-27,30,28,24,28,25,21,94,91,85,29.95,29.75,10,5,22,0.01
2013-2-28,32,26,20,27,23,17,90,87,79,30.14,29.95,9,4,16,0.01
2013-3-1,27,26,24,24,22,18,92,84,75,30.29,30.12,12,6,19,0.00
2013-3-2,30,22,13,21,17,10,90,82,70,30.29,30.14,5,2,8,0.00
2013-3-3,32,28,23,25,22,19,90,79,70,30.14,29.88,13,7,22,0.00
2013-3-4,34,30,26,30,28,24,95,91,86,29.93,29.77,15,10,26,0.00
2013-3-5,32,28,25,28,25,21,96,88,78,30.25,29.91,13,7,24,0.06
2013-3-6,28,24,14,22,20,11,92,86,78,30.39,30.25,11,4,19,0.01
2013-3-7,30,21,8,26,18,6,92,88,78,30.34,30.22,12,5,21,0.00
2013-3-8,40,32,23,34,28,21,93,86,77,30.26,30.01,13,7,22,0.05
2013-3-9,39,37,35,38,36,34,98,96,92,30.01,29.63,12,7,25,0.56
2013-3-10,38,34,31,37,33,30,98,97,95,29.77,29.62,21,8,28,0.24
2013-3-11,31,27,23,31,25,20,100,93,83,29.90,29.70,11,3,19,0.02
2013-3-12,32,25,16,28,22,14,92,86,77,30.20,29.90,18,7,30,0.01
2013-3-13,32,22,14,23,17,11,90,81,65,30.41,30.20,8,4,21,0.01
2013-3-14,46,34,21,35,28,18,94,81,63,30.28,30.03,10,3,15,0.01
2013-3-15,45,35,28,42,34,27,96,93,86,30.04,29.71,10,3,14,0.00
2013-3-16,34,31,26,33,27,21,95,86,78,30.18,29.76,15,7,27,0.00
2013-3-17,37,29,21,29,23,16,86,80,71,30.18,29.82,16,10,27,0.00
2013-3-18,32,27,20,31,22,14,96,83,71,29.95,29.67,21,10,37,0.01
2013-3-19,34,23,14,24,15,7,84,71,62,30.23,29.93,15,8,26,0.01
2013-3-20,26,20,14,15,11,7,81,70,58,30.29,30.11,16,8,27,0.01
2013-3-21,30,21,11,21,14,7,85,74,63,30.11,29.96,12,4,16,0.01
2013-3-22,36,28,19,27,21,15,85,76,62,30.05,29.97,7,3,10,0.00
2013-3-23,36,31,26,28,25,22,90,77,62,30.10,30.00,11,6,15,0.00
2013-3-24,32,29,27,29,27,25,95,90,81,30.03,29.87,12,8,21,0.00
2013-3-25,37,31,27,29,26,23,95,83,72,30.22,29.94,14,6,24,0.02
2013-3-26,39,30,23,28,24,19,92,78,59,30.30,30.22,8,4,15,0.01
2013-3-27,44,34,24,32,27,22,93,77,58,30.31,30.23,9,2,15,0.00
2013-3-28,53,40,29,41,32,26,92,76,54,30.29,30.19,9,3,15,0.00
2013-3-29,59,45,30,41,35,28,94,71,46,30.25,30.09,10,3,19,0.00
2013-3-30,56,47,39,51,42,-100,96,85,68,30.09,29.84,8,2,14,0.04
2013-3-31,49,40,31,40,34,23,97,80,57,30.08,29.86,13,5,25,0.01
2013-4-1,37,29,22,24,21,17,82,71,55,30.27,30.08,10,5,21,0.00
2013-4-2,43,32,21,29,24,19,92,74,47,30.32,30.25,11,3,20,0.00
2013-4-3,49,37,25,29,25,22,91,64,43,30.38,30.22,10,3,16,0.00
2013-4-4,59,45,31,43,32,23,86,62,48,30.22,30.02,10,3,21,0.00
2013-4-5,58,44,29,35,31,27,93,64,36,30.17,29.80,12,5,24,0.00
2013-4-6,65,54,42,53,43,35,90,67,52,29.80,29.52,17,6,25,0.00
2013-4-7,63,46,34,47,40,32,97,79,53,29.91,29.64,11,5,21,0.00
2013-4-8,75,61,45,55,50,43,97,71,44,29.80,29.58,15,3,19,0.00
2013-4-9,55,46,41,51,45,40,97,95,87,29.87,29.69,19,14,26,0.58
2013-4-10,41,38,37,40,37,35,95,94,91,29.95,29.69,24,11,34,0.60
2013-4-11,44,38,35,43,36,34,98,94,83,29.71,29.54,11,4,15,0.37
2013-4-12,38,35,33,35,32,28,99,86,76,29.90,29.56,15,8,25,0.01
2013-4-13,48,40,30,38,32,26,89,75,61,29.96,29.82,12,6,21,0.00
2013-4-14,66,49,39,56,45,37,95,86,69,29.82,29.37,17,9,26,0.54